Location: Unspecified
(0.0000°N, 0.0000°E)
Time: 02:56:13
(UTC+00:00)

Transit 2A Rocket - Pass Details

Date: 14 December 2018
Orbit: 586 x 918 km, 66.7° (Epoch: 16 January)

Event Time Altitude Azimuth Distance (km) Brightness Sun altitude
Rises 18:27:59 0° 348° (NNW) 3,525 8.3 -7.6°
Reaches altitude 10° 18:30:32 10° 352° (N) 2,596 7.6 -8.2°
Maximum altitude 18:36:31 58° 70° (ENE) 1,057 5.4 -9.6°
Drops below altitude 10° 18:42:23 10° 148° (SSE) 2,550 7.6 -10.9°
Sets 18:44:52 0° 152° (SSE) 3,458 8.3 -11.5°
